Location: Newark
(40.9908°N, 0.0353°W)
Time: 21:46:39
(UTC+00:00)

Envisat - Visible Passes

Search period start: 25 March 2019 00:00
Search period end: 04 April 2019 00:00
Orbit: 764 x 766 km, 98.2° (Epoch: 24 March)

Date Brightness Start Highest point End Pass type
(mag) Time Alt. Az. Time Alt. Az. Time Alt. Az.
25 Mar 6.1 20:09:57 10° WSW 20:11:52 12° W 20:13:48 10° WNW visible
26 Mar 5.2 19:30:28 10° SSW 19:34:45 27° W 19:39:04 10° NW visible
27 Mar 3.6 18:52:49 10° S 18:57:50 61° W 19:02:53 10° NNW visible
28 Mar 5.9 19:57:32 10° SW 20:00:31 16° W 20:03:31 10° NW visible
29 Mar 4.8 19:18:52 10° SSW 19:23:27 34° W 19:28:06 10° NNW visible
31 Mar 5.7 19:45:32 10° SW 19:49:12 20° W 19:52:52 10° NW visible
01 Apr 4.3 19:07:22 10° S 19:12:12 44° W 19:17:03 10° NNW visible
02 Apr 6.2 20:13:51 10° WSW 20:15:02 11° W 20:16:12 10° WNW visible
03 Apr 5.3 19:33:44 10° SSW 19:37:53 25° W 19:42:02 10° NW visible
